STARLINK-32145 (60154 NORAD) Tracking and Keplerian Element Data

This shows tracking and keplerian element data for the satellite.

Feedback or suggestion? Click here.




ElementValue
Catalog60154
NameSTARLINK-32145
Epoch Orbit1773
Epoch Day286.44373794
Epoch Year2024
RAAN188.3221
Inclination53.1604
Eccentricity8.11E-05
Argument of Perigee86.5547
Mean Anonmoly273.5551
Mean Motion15.3962808
Decay Rate-1.829E-05
L11 60154U 24120V 24286.44373794 -.00001829 00000+0 -35759-4 0 9992
L22 60154 53.1604 188.3221 0000811 86.5547 273.5551 15.39628080 17735



Live tracking and technical data element details for STARLINK-32145 (NORAD 60154). STARLINK-32145 can be tracked NOW for your location showing map with azimuth and elevation plus other details from your city location.







IsCatalogInMostPopularTable: catalog: 60154, numindb: 10
Update: records affected: 1



GetName: 60154 STARLINK-32145

Hit Count: updated at: Thu, 23 Jan 2025 17:33:06 GMT